Theta_e
301 301 301 301 301 302 302 302 302 302 302 303 304 305 307 308 309 310 315 315 316 317 317 325 326 328 325 325 322 326 330 332 333 333 332 331 332 331 331 331 331 330 331 331 330
300 300 300 300 300 300 301 301 301 301 302 302 303 303 304 305 306 311 313 314 315 314 316 321 325 323 327 326 325 326 331 332 332 332 332 332 332 331 331 332 331 330 330 331 331
299 299 299 299 300 300 300 300 300 300 300 301 301 302 303 304 312 314 315 314 313 313 313 317 323 324 324 327 328 328 331 332 332 332 331 332 332 331 332 333 331 330 330 331 330
297 297 298 298 299 299 299 300 300 300 300 300 300 301 302 303 315 318 314 314 312 312 312 313 318 325 325 326 326 331 330 331 331 331 331 332 330 332 331 331 330 329 330 330 330
297 297 297 298 298 298 298 299 299 299 300 300 300 300 301 311 312 313 311 313 314 320 318 315 317 322 327 325 326 328 329 329 330 330 330 330 330 331 331 330 330 329 330 330 330
298 299 299 300 299 299 299 299 299 299 299 300 300 300 308 309 311 311 312 312 314 316 321 318 318 321 325 327 327 327 327 327 327 327 329 330 330 330 330 330 329 329 329 329 329
301 302 302 302 302 301 301 300 300 300 300 300 300 302 308 308 308 309 310 311 312 314 315 320 319 321 324 327 326 327 329 329 329 327 328 328 330 330 329 329 329 329 328 328 327
302 302 302 302 302 301 301 301 301 301 300 300 301 306 309 307 307 307 308 309 311 312 314 316 319 320 322 323 326 327 329 330 329 329 328 328 330 330 329 329 329 328 328 328 327
303 303 303 303 302 302 301 301 301 301 301 302 306 309 309 308 308 308 308 308 310 312 313 314 315 318 320 323 326 328 330 330 329 329 329 330 331 330 328 328 329 328 328 327 327
302 302 302 302 301 301 301 303 306 307 309 310 310 310 310 307 307 309 311 310 310 312 314 314 315 318 320 323 326 327 328 328 328 329 329 330 331 330 327 327 327 328 328 327 327
301 301 301 300 300 300 300 307 309 311 312 310 308 310 308 307 306 306 307 308 312 313 317 316 317 318 320 322 324 325 326 327 328 328 328 328 329 330 328 327 328 328 328 328 327
301 301 301 300 300 300 306 306 307 306 308 307 306 307 307 307 307 307 307 309 312 315 315 318 318 319 319 321 322 322 324 326 327 328 329 329 329 330 330 329 327 327 327 327 327
302 301 301 300 300 308 305 306 306 306 308 307 306 307 308 308 309 308 308 308 310 314 316 317 319 318 318 319 321 323 324 325 326 327 328 328 329 329 328 327 326 325 325 325 326
302 302 301 300 304 306 306 306 305 306 309 308 309 308 308 310 311 311 310 309 310 310 315 316 317 319 319 319 320 323 323 324 325 327 328 327 330 328 328 328 327 327 326 326 326
301 301 300 302 305 306 305 305 305 306 309 308 308 310 308 309 309 311 311 311 309 310 311 315 317 317 319 320 320 322 323 325 325 325 325 325 327 326 326 327 327 328 326 326 326
301 300 301 306 307 306 306 305 305 309 309 308 308 309 309 309 309 309 310 311 311 311 312 314 315 317 318 319 320 321 322 324 325 325 327 325 326 327 327 327 327 328 327 327 328
301 302 304 306 306 306 306 306 309 310 307 308 308 307 308 308 307 308 308 311 313 313 311 312 314 317 318 318 320 321 323 325 326 327 328 325 326 327 327 327 328 328 328 327 330
301 304 307 306 306 306 306 309 310 307 307 306 306 306 306 306 307 307 309 310 310 313 314 311 312 315 318 319 320 321 323 325 328 328 326 325 326 327 327 327 326 326 326 332 334
304 307 306 306 306 306 307 310 307 306 306 306 307 308 308 307 307 307 308 309 313 314 319 315 312 314 317 318 319 321 324 323 326 327 328 327 327 327 328 329 327 329 327 332 334
306 306 307 306 307 307 309 307 306 306 306 307 307 308 308 307 308 308 307 312 311 310 312 317 315 314 317 317 318 321 322 323 327 327 327 327 328 326 329 328 328 330 329 331 334
307 307 307 306 307 307 310 307 306 304 305 306 307 307 308 308 308 308 309 311 310 310 311 314 319 320 318 319 318 320 322 323 325 325 327 328 326 327 329 329 329 329 330 334 334
307 309 305 306 309 308 308 306 304 305 305 306 307 308 308 308 308 308 310 310 308 310 313 314 317 324 320 320 319 320 322 324 326 327 325 326 327 329 327 329 331 332 333 334 334
307 307 307 306 309 308 307 306 306 307 306 306 306 307 308 308 309 309 309 310 308 310 314 314 318 321 325 321 319 320 321 324 325 327 325 325 325 328 329 331 331 332 333 334 333
307 309 307 307 305 306 306 307 307 305 307 306 307 307 308 308 308 310 310 309 308 309 309 311 317 321 326 321 319 320 321 324 325 327 326 325 326 328 330 330 331 333 334 333 332
307 307 305 308 307 305 305 307 307 307 307 306 308 307 308 308 308 308 309 309 309 309 309 313 316 317 319 321 322 320 321 322 325 325 326 326 324 327 329 329 329 332 333 333 332
305 305 304 305 305 305 307 308 307 307 307 307 308 308 308 308 307 308 307 309 310 310 313 312 317 315 316 319 322 321 321 321 322 324 324 324 324 324 325 326 327 329 332 333 333
305 305 304 304 306 306 307 306 306 306 307 307 307 308 309 308 307 307 307 307 309 309 310 313 317 317 318 319 322 322 322 321 322 323 324 324 324 325 325 327 329 329 330 332 333
Wind_Speed
13 15 16 16 17 17 18 18 18 17 17 19 22 24 26 26 25 20 23 19 16 18 19 9 15 20 17 23 27 21 16 18 22 22 16 18 15 13 5 12 18 14 17 19 21
14 14 15 17 18 19 19 20 20 20 18 17 19 20 23 23 25 27 28 26 24 21 19 19 21 20 25 23 27 24 17 25 23 20 18 22 22 21 19 13 20 19 24 23 18
13 14 15 16 17 18 19 20 20 20 20 18 18 17 16 17 20 22 21 27 32 29 26 22 23 24 30 30 29 30 25 25 26 28 30 28 30 27 24 21 24 21 24 24 26
17 17 17 17 17 18 18 19 21 21 21 20 18 17 15 8 9 3 8 16 18 25 29 29 31 33 28 27 33 29 36 35 34 36 34 31 37 27 31 28 28 25 25 26 27
17 17 18 19 19 19 19 19 20 21 21 21 20 18 14 13 21 20 18 9 8 11 26 34 38 38 32 31 32 32 31 39 39 40 42 37 32 33 32 34 33 30 26 26 27
17 17 18 20 20 20 19 19 20 19 19 20 21 20 13 24 13 15 17 17 13 11 16 30 39 38 40 37 33 38 37 38 41 42 39 34 36 34 34 33 35 32 31 31 28
17 18 20 20 20 20 20 19 19 19 19 20 20 18 20 28 16 16 16 19 21 20 21 21 32 35 39 33 42 40 35 33 34 35 31 28 33 33 39 35 36 35 33 32 26
15 17 18 19 21 22 23 22 21 20 19 19 19 13 21 17 20 23 23 24 23 26 24 20 19 34 35 31 34 35 30 30 33 33 34 29 34 29 34 34 32 25 31 24 25
20 21 21 20 20 20 19 19 19 19 15 13 9 13 23 7 16 14 22 22 21 25 26 24 17 25 29 23 22 26 28 36 32 29 27 30 39 29 33 34 33 41 24 26 30
23 23 22 23 25 25 26 16 17 12 7 4 9 9 19 16 6 6 5 12 18 20 25 28 19 16 19 22 27 31 33 30 33 28 28 33 35 31 26 29 33 38 36 32 34
23 24 25 27 27 26 26 19 6 8 12 14 19 16 25 16 18 20 13 13 13 20 25 29 19 27 44 36 32 30 27 33 32 27 28 31 31 24 23 32 33 36 41 37 34
23 24 25 26 27 23 12 14 10 10 16 26 28 31 30 27 26 25 18 17 18 21 22 24 31 48 26 31 31 33 31 33 29 28 23 25 28 25 24 25 33 37 38 37 35
25 25 26 29 23 8 15 12 8 12 11 29 28 24 19 14 23 23 24 26 23 22 26 31 45 26 32 32 32 32 33 28 30 24 21 22 28 28 26 30 37 39 41 40 39
27 27 28 28 12 13 11 9 10 11 7 20 11 8 11 9 13 14 17 23 25 29 24 30 34 34 32 34 35 33 29 27 25 21 18 21 23 25 18 24 23 28 31 31 29
29 29 24 13 11 8 10 10 9 5 6 5 9 6 6 9 11 4 7 16 20 24 24 31 31 36 35 42 31 36 25 25 25 21 22 24 17 18 21 22 23 23 30 29 29
32 23 13 9 6 9 11 9 7 6 6 3 1 8 7 11 13 14 11 15 15 19 28 32 33 29 40 34 29 29 27 25 20 17 20 22 20 22 21 20 20 20 19 25 25
29 13 12 9 10 13 9 9 5 7 3 6 9 12 14 17 15 17 14 15 14 15 22 30 31 28 30 32 36 27 23 16 16 17 21 18 20 23 20 18 17 16 13 7 11
21 10 10 10 11 10 7 6 6 13 14 18 18 16 19 16 20 16 12 15 19 16 19 24 26 33 27 30 37 31 28 17 28 12 16 22 18 16 17 10 10 13 15 10 10
12 5 6 11 8 7 6 6 7 14 16 14 18 16 17 12 10 9 15 16 6 8 6 17 30 28 34 25 26 40 27 32 24 20 14 13 16 15 17 14 10 10 16 15 14
10 6 5 9 9 6 6 7 9 11 12 15 17 12 15 18 10 13 12 4 5 4 9 17 21 31 27 29 32 33 29 22 21 24 15 14 10 8 2 7 13 10 13 16 17
10 4 4 8 7 7 5 10 15 16 15 10 20 18 17 12 12 15 4 6 3 12 11 21 4 16 29 33 31 26 23 30 21 18 15 11 9 2 5 2 15 14 16 19 22
7 3 5 6 5 3 6 15 16 18 15 17 12 16 16 15 14 17 6 4 2 12 13 16 6 12 28 28 30 30 27 31 16 22 17 11 4 4 9 7 5 3 13 19 22
10 5 1 4 4 7 15 16 13 12 13 14 9 14 18 15 8 6 6 9 8 9 5 8 10 13 8 19 28 32 34 27 27 16 19 9 4 8 9 6 1 3 16 19 23
9 4 1 3 5 9 14 15 14 15 16 11 17 12 13 14 3 7 9 1 8 8 17 11 14 17 6 13 22 28 33 30 28 17 18 19 12 13 14 11 10 8 14 20 23
5 7 5 6 10 12 15 15 14 14 8 20 11 12 11 15 17 14 6 12 1 6 6 5 17 25 7 23 23 25 28 24 31 20 16 18 14 14 13 13 8 10 15 20 21
7 6 12 19 10 11 11 11 14 17 10 13 12 18 15 15 15 17 16 11 6 7 5 9 10 17 17 20 32 23 31 27 23 27 18 12 18 12 4 12 8 10 12 16 19
7 7 5 13 7 8 9 13 19 19 10 13 14 15 17 14 18 23 22 18 15 13 13 8 6 6 16 20 26 14 19 27 25 24 17 12 6 8 6 7 13 9 6 13 16
Wind_Direction
338 337 338 334 332 328 326 321 316 313 308 298 289 280 278 278 273 274 262 248 235 238 245 234 207 209 214 228 223 233 254 251 253 256 263 269 239 263 230 286 297 281 287 286 287
333 329 328 328 328 327 326 326 324 323 321 315 302 295 285 286 284 275 256 243 248 235 229 212 214 210 219 223 225 228 238 242 256 265 270 285 288 292 270 251 276 274 282 273 291
323 320 320 318 318 320 322 322 322 320 322 322 322 318 308 297 302 274 252 242 245 240 233 228 229 220 229 230 222 232 240 252 256 264 278 287 274 278 277 277 276 289 290 291 291
328 327 321 316 313 310 311 314 316 316 320 321 317 318 315 301 257 354 265 234 235 240 228 225 230 232 228 233 232 242 238 245 258 267 282 280 285 273 268 274 281 285 285 287 288
336 332 328 325 319 313 309 307 305 308 312 313 312 312 314 254 243 295 289 274 243 255 228 220 223 226 232 233 241 236 242 251 257 264 268 272 275 278 270 275 280 283 284 281 279
345 340 335 330 327 322 316 311 306 302 298 298 300 302 286 266 260 257 255 259 249 243 235 227 229 229 239 239 236 244 250 253 259 264 267 268 270 265 261 267 277 276 275 274 277
344 339 334 331 328 325 321 315 307 299 290 285 283 282 270 255 259 262 264 256 249 247 248 239 236 238 241 246 247 255 256 259 256 256 262 268 271 262 268 268 272 271 271 265 268
343 334 327 326 325 326 324 319 311 300 291 281 274 258 259 261 266 265 260 259 253 244 241 242 246 240 241 256 249 250 255 257 250 250 249 247 260 266 271 271 272 270 271 269 271
344 341 336 332 331 327 320 319 315 306 291 279 262 225 263 273 246 268 248 250 253 243 237 239 244 240 232 240 253 240 242 241 250 246 250 245 255 257 266 269 263 264 268 269 272
344 340 336 333 332 332 325 330 314 296 327 272 243 243 251 253 247 268 247 259 256 236 227 220 227 234 230 219 226 228 236 244 255 255 249 247 255 259 272 270 268 276 273 263 275
343 339 336 333 333 332 330 339 286 244 228 261 285 237 284 265 275 266 264 261 241 229 221 206 212 219 220 218 235 242 246 247 250 248 238 257 269 264 252 257 264 273 278 273 271
342 337 334 334 334 332 356 327 328 300 295 277 268 263 260 267 269 256 248 235 233 229 220 214 216 222 221 229 230 243 252 252 263 264 260 260 268 271 270 282 283 279 276 276 277
340 335 330 329 333 355 321 309 307 314 281 283 267 260 251 239 246 247 234 227 238 230 225 220 226 227 222 231 234 231 235 245 254 261 263 272 273 272 268 266 264 264 266 263 261
340 332 327 325 324 311 318 316 320 316 281 265 198 212 195 226 242 230 237 231 227 237 234 234 238 235 224 230 228 236 230 242 255 265 264 251 266 259 264 266 268 273 271 267 260
342 334 335 338 313 333 316 315 307 290 278 116 121 128 238 236 323 190 249 217 243 235 231 240 229 233 235 227 227 241 234 238 239 247 260 254 260 272 265 266 265 261 257 261 253
345 344 1 0 314 327 316 306 283 239 246 50 129 346 257 261 254 268 231 217 246 241 253 244 246 234 234 242 228 238 232 241 244 249 247 243 252 268 268 276 284 284 261 252 235
349 359 7 357 324 317 306 278 253 261 353 41 341 317 285 290 280 266 261 249 232 212 236 243 245 243 239 222 238 224 217 223 226 228 244 243 246 259 274 275 279 291 255 231 129
351 15 330 346 330 317 306 275 262 348 10 348 337 312 294 277 271 270 253 261 251 269 253 227 231 233 233 230 214 222 206 210 213 216 233 224 243 257 254 254 271 264 234 146 167
3 335 338 332 343 333 295 275 345 2 343 327 315 299 279 321 304 276 258 258 331 16 285 262 233 227 226 228 235 213 212 216 245 220 245 237 224 239 250 249 246 233 187 156 167
350 315 284 338 321 316 283 296 337 354 336 325 314 305 317 319 275 270 271 320 306 273 289 281 255 222 224 219 239 223 210 205 225 239 226 242 241 238 191 201 176 197 180 163 162
341 291 333 347 325 302 303 312 331 339 313 315 312 311 311 326 300 288 230 165 242 301 275 286 285 258 233 203 214 215 202 212 219 228 229 235 249 194 199 219 181 196 167 159 164
316 283 356 348 300 290 302 328 306 293 304 306 337 300 310 305 282 290 226 344 269 313 292 272 253 263 222 210 215 215 214 203 214 208 235 213 155 82 175 241 356 327 131 159 161
309 295 293 348 348 330 322 325 338 328 312 307 295 303 306 309 306 313 340 50 354 309 316 357 235 257 222 226 206 215 209 203 220 220 205 215 185 209 142 108 94 140 146 158 158
311 302 66 330 351 316 323 312 328 332 323 315 308 310 294 300 256 275 305 92 355 295 288 294 260 254 240 217 196 210 202 203 201 217 187 221 129 146 141 115 87 124 147 158 162
328 20 347 306 327 319 301 292 317 329 324 301 298 299 295 308 311 319 298 303 214 247 252 261 248 243 258 300 281 209 208 199 193 202 217 183 197 173 145 94 90 115 158 160 164
338 349 328 303 293 310 303 309 331 325 327 312 326 318 311 295 304 302 314 312 281 244 241 280 272 262 248 287 284 191 211 197 197 208 208 171 200 205 256 108 68 93 169 171 170
331 320 321 292 285 302 308 321 310 311 305 290 302 313 304 318 315 302 296 288 278 288 297 288 326 177 242 256 268 206 211 188 195 199 210 195 204 175 145 64 44 29 25 185 179